TimePDT,TemperatureF,Dew PointF,Humidity,Sea Level PressureIn,VisibilityMPH,Wind Direction,Wind SpeedMPH,Gust SpeedMPH,PrecipitationIn,Events,Conditions,WindDirDegrees,DateUTC
12:55 AM,70.0,57.9,65,29.87,10.0,West,3.5,-,N/A,,Clear,280,2013-08-29 07:55:00
1:55 AM,69.1,57.9,68,29.86,10.0,West,4.6,-,N/A,,Clear,260,2013-08-29 08:55:00
2:55 AM,68.0,57.9,70,29.86,10.0,WNW,8.1,-,N/A,,Clear,290,2013-08-29 09:55:00
3:55 AM,68.0,57.9,70,29.84,10.0,WNW,10.4,-,N/A,,Clear,300,2013-08-29 10:55:00
4:55 AM,68.0,57.9,70,29.86,10.0,NW,6.9,-,N/A,,Clear,320,2013-08-29 11:55:00
5:55 AM,66.9,55.9,68,29.85,10.0,NW,8.1,-,N/A,,Clear,320,2013-08-29 12:55:00
6:55 AM,66.9,54.0,63,29.86,10.0,NW,6.9,-,N/A,,Clear,320,2013-08-29 13:55:00
7:55 AM,71.1,53.1,53,29.86,10.0,NNW,8.1,-,N/A,,Clear,340,2013-08-29 14:55:00
8:55 AM,72.0,53.1,51,29.86,10.0,NW,9.2,-,N/A,,Clear,320,2013-08-29 15:55:00
9:55 AM,75.0,53.1,46,29.86,10.0,NNW,8.1,-,N/A,,Clear,330,2013-08-29 16:55:00
10:55 AM,78.1,52.0,40,29.85,10.0,NNW,9.2,-,N/A,,Clear,330,2013-08-29 17:55:00
11:55 AM,79.0,51.1,38,29.85,10.0,WNW,9.2,-,N/A,,Mostly Cloudy,290,2013-08-29 18:55:00
12:55 PM,66.0,61.0,84,29.92,9.0,NNW,17.3,24.2,0.04,Rain,Light Rain,330,2013-08-29 19:55:00
1:55 PM,73.9,57.0,55,29.91,10.0,NW,16.1,-,0.00,,Mostly Cloudy,310,2013-08-29 20:55:00
2:55 PM,75.0,57.0,53,29.92,10.0,NW,17.3,-,N/A,,Clear,310,2013-08-29 21:55:00
3:55 PM,77.0,57.0,50,29.93,10.0,NW,9.2,-,N/A,,Scattered Clouds,310,2013-08-29 22:55:00
4:55 PM,75.9,57.0,52,29.92,10.0,West,9.2,-,N/A,,Clear,280,2013-08-29 23:55:00
5:55 PM,75.0,57.0,53,29.92,10.0,WSW,6.9,-,N/A,,Mostly Cloudy,250,2013-08-30 00:55:00
6:55 PM,75.0,57.0,53,29.92,10.0,WNW,9.2,-,N/A,,Clear,300,2013-08-30 01:55:00
7:55 PM,72.0,55.9,57,29.93,10.0,NNW,8.1,-,N/A,,Clear,340,2013-08-30 02:55:00
8:55 PM,71.1,55.9,59,29.95,10.0,NW,8.1,-,N/A,,Partly Cloudy,320,2013-08-30 03:55:00
9:55 PM,70.0,55.9,61,29.96,10.0,NNW,8.1,-,N/A,,Clear,330,2013-08-30 04:55:00
10:55 PM,66.0,57.9,75,29.97,10.0,Variable,3.5,-,N/A,,Clear,0,2013-08-30 05:55:00
11:55 PM,68.0,55.9,65,29.98,10.0,NNW,5.8,-,N/A,,Clear,330,2013-08-30 06:55:00